User: anonymous   Login
Location: Addison Town Hall
(32.9525°N, 96.8158°W)
Time: 03:39:18
(UTC+00:00)
Language:

Meteor 1-31 Rocket - Orbit

View from above orbital plane
View from above orbital plane
View from above satellite
View from above satellite

Ground track
Ground track

The orbit data is extracted from the following two-line orbital elements,

1 12586U 81065B   21127.94913967  .00000217  00000-0  16919-4 0  9993
2 12586  97.6549 116.0137 0018915  10.7032 349.4596 15.11030214166810
Epoch (UTC): 07 May 2021 22:46:45
Eccentricity: 0.0018915
inclination: 97.6549°
perigee height: 520 km
apogee height: 546 km
right ascension of ascending node: 116.0137°
argument of perigee: 10.7032°
revolutions per day: 15.11030214
mean anomaly at epoch: 349.4596°
orbit number at epoch: 16681

The dashed part of the orbit path shows where the satellite is in the earth's shadow,  

DLR